TimePDT,TemperatureF,Dew PointF,Humidity,Sea Level PressureIn,VisibilityMPH,Wind Direction,Wind SpeedMPH,Gust SpeedMPH,PrecipitationIn,Events,Conditions,WindDirDegrees,DateUTC
12:53 AM,57.0,54.0,89,29.95,10.0,SSE,3.5,-,N/A,,Clear,150,2013-07-24 07:53:00
1:53 AM,55.9,53.1,90,29.95,10.0,Calm,Calm,-,N/A,,Clear,0,2013-07-24 08:53:00
2:53 AM,55.0,53.1,93,29.93,10.0,Calm,Calm,-,N/A,,Clear,0,2013-07-24 09:53:00
3:53 AM,55.0,53.1,93,29.93,9.0,South,4.6,-,N/A,,Clear,170,2013-07-24 10:53:00
4:53 AM,54.0,53.1,97,29.93,9.0,South,3.5,-,N/A,,Clear,170,2013-07-24 11:53:00
5:14 AM,53.6,53.6,100,29.95,4.0,SSE,4.6,-,N/A,,Scattered Clouds,150,2013-07-24 12:14:00
5:17 AM,53.6,53.6,100,29.96,2.0,SSE,3.5,-,N/A,,Mostly Cloudy,150,2013-07-24 12:17:00
5:25 AM,53.6,53.6,100,29.96,1.0,Calm,Calm,-,N/A,,Mist,0,2013-07-24 12:25:00
5:53 AM,54.0,54.0,100,29.95,1.8,SSE,3.5,-,N/A,,Overcast,160,2013-07-24 12:53:00
6:18 AM,53.6,53.6,100,29.97,0.2,Calm,Calm,-,N/A,Fog,Fog,0,2013-07-24 13:18:00
6:53 AM,54.0,54.0,100,29.96,0.5,Calm,Calm,-,N/A,Fog,Fog,0,2013-07-24 13:53:00
7:53 AM,55.0,54.0,96,29.97,0.5,Calm,Calm,-,N/A,Fog,Fog,0,2013-07-24 14:53:00
8:20 AM,55.4,53.6,94,29.99,1.5,SSE,3.5,-,N/A,,Overcast,150,2013-07-24 15:20:00
8:41 AM,55.4,53.6,94,29.99,5.0,SE,5.8,-,N/A,,Overcast,130,2013-07-24 15:41:00
8:53 AM,57.0,54.0,89,29.97,5.0,SSE,3.5,-,N/A,,Overcast,150,2013-07-24 15:53:00
8:57 AM,57.2,53.6,88,29.99,10.0,Variable,3.5,-,N/A,,Scattered Clouds,0,2013-07-24 15:57:00
9:53 AM,64.9,55.0,70,29.97,10.0,South,4.6,-,N/A,,Clear,180,2013-07-24 16:53:00
10:53 AM,71.1,55.9,59,29.97,10.0,SSE,6.9,-,N/A,,Clear,160,2013-07-24 17:53:00
11:53 AM,73.9,55.9,53,29.95,10.0,South,5.8,-,N/A,,Clear,180,2013-07-24 18:53:00
12:53 PM,79.0,57.0,47,29.93,10.0,SSW,8.1,-,N/A,,Clear,210,2013-07-24 19:53:00
1:53 PM,82.9,57.9,42,29.92,10.0,South,9.2,-,N/A,,Clear,180,2013-07-24 20:53:00
2:53 PM,81.0,55.9,42,29.91,10.0,South,13.8,-,N/A,,Clear,190,2013-07-24 21:53:00
3:53 PM,84.0,54.0,35,29.89,10.0,SSE,12.7,-,N/A,,Clear,150,2013-07-24 22:53:00
4:53 PM,81.0,54.0,39,29.88,10.0,SE,15.0,-,N/A,,Clear,140,2013-07-24 23:53:00
5:53 PM,77.0,54.0,45,29.87,10.0,SSE,10.4,-,N/A,,Clear,150,2013-07-25 00:53:00
6:53 PM,73.0,54.0,51,29.88,10.0,SSE,10.4,-,N/A,,Clear,150,2013-07-25 01:53:00
7:53 PM,69.1,54.0,58,29.88,10.0,SSE,10.4,-,N/A,,Clear,160,2013-07-25 02:53:00
8:53 PM,63.0,53.1,70,29.89,10.0,SSE,6.9,-,N/A,,Clear,160,2013-07-25 03:53:00
9:53 PM,60.1,53.1,78,29.91,10.0,SE,5.8,-,N/A,,Clear,140,2013-07-25 04:53:00
10:53 PM,57.9,53.1,84,29.91,10.0,Calm,Calm,-,N/A,,Clear,0,2013-07-25 05:53:00
11:53 PM,57.0,53.1,87,29.91,10.0,South,4.6,-,N/A,,Clear,170,2013-07-25 06:53:00